SL-14 DEB, 45356

Orbit data source: Space-Track

SL-14 DEB, 45356 is space debris in LEO originally from a launch on Thu, 15 Aug 1991 UTC launched from the Plesetsk Missile And Space Complex (PKMTR). Debris objects in space refer to the collection of defunct objects orbiting the Earth. Examples of debris include non-operational satellites, rocket bodies, and fragments generated from explosions, collisions, or faulty payload assembly.

Loading next visibility...
Identifier
45356, 1991-056CQ
Orbit
LEO
Country
Flag of CISCIS
Related business
Manufacturer
Unknown
Mission
Spacecraft
Bus & Motor
Unknown
Mass
Unknown
Launch date (UTC)
1991-08-15 (35 years ago)
Launch vehicle
Unknown
Launch site
Plesetsk Missile And Space Complex (PKMTR)
Object type
Payload
Rocket body
Debris
Shape & HBR
Unknown shape, 0.1 m
Radar Cross Section
Small (<0.1 m²)

Expand to show TLE details & history
Last TLE update: 1 day ago

TLE from 1 day ago
0 SL-14 DEB
1 45356U 91056CQ  26127.31095342  .00000370  00000-0  79614-3 0  9999
2 45356  82.6128 156.3849 0045227  73.6519 286.9576 13.26927739299012
Epoch: 2026-05-07T07:27Z
TLE epoch observation values (Epoch: 2026-05-07T07:27:46.375Z)
Latitude
0.00005°
Longitude
179.28276°
Altitude
1,151.395 km
Speed
7.282 km/s
True Right ascension
10h 25m 32s
True Declination
0° 00' 00"
Sunlit
Object was in daylight at epoch
Visualization orbit readout
Latitude
Unknown
Longitude
Unknown
Altitude
Unknown
Speed
Unknown
Apparent Right ascension
Unknown
Apparent Declination
Unknown
Sunlit
N/A
Visualization observer readout
Local Sidereal Time
21:00:05
Azimuth
Unknown
Elevation
Unknown
Doppler factor
Unknown
Orbital elements
Apogee altitude
1,189.675 km
Perigee altitude
1,121.529 km
Semi-major axis
7,533.739 km
Eccentricity
0.00452
Inclination
82.6128°
RAAN
156.3849°
Arg. of periapsis
73.6519°
True anomaly
286.46106°
Mean anomaly
286.9576°
Eccentric anomaly
286.70941°
Mean motion
3.31915 °/min
Orbital period
108.46 mins
BSTAR
0.00079614
Loading maneuver chart data...
Computing Atmospheric mass density...
Loading historical data...
Loading historical data...
Loading historical data...
Loading historical data...
Loading historical data...
Loading historical data...
Loading historical data...

Documentation

Showing up to 5 results
|